Weather History for KAHQ - May, 2012

Change the Weather History Date:

Wednesday, May 16, 2012

  Actual Average Record
Temperature  
Mean Temperature 64 °F -  
Max Temperature 80 °F 76 °F 90 °F (1964)
Min Temperature 48 °F 49 °F 32 °F (2014)
Degree Days  
Heating Degree Days 2    
Growing Degree Days 14 (Base 50)    
Moisture  
Dew Point 34 °F    
Average Humidity 37    
Maximum Humidity 65    
Minimum Humidity 15    
Precipitation  
Precipitation 0.00 in - - ()
Sea Level Pressure  
Sea Level Pressure 30.08 in    
Wind  
Wind Speed 8 mph (East)    
Max Wind Speed 16 mph    
Max Gust Speed 20 mph    
Visibility 10 miles    
Events      
Averages and records for this station are not official NWS values.
T = Trace of Precipitation, MM = Missing Value Source: NWS Daily Summary

Daily Weather History Graph

Daily Weather History Graph

Search for Another Location

Airport or City:

Trip Planner

Search our weather history database for the weather conditions in past years. The results will help you decide how hot, cold, wet, or windy it might be!

Date:

Astronomy

May. 16, 2012 Rise Set
Actual Time 6:06 AM CDT 8:39 PM CDT
Civil Twilight 5:34 AM CDT 9:11 PM CDT
Nautical Twilight 4:55 AM CDT 9:50 PM CDT
Astronomical Twilight 4:11 AM CDT 10:35 PM CDT
Moon 3:39 AM CDT (5/16) 4:54 PM CDT (5/16)
Length of Visible Light 15h 36m
Length of Day
14h 33m
Waning Crescent, 16% of the Moon is Illuminated
May 16
Waning Crescent
May 20
New
May 28
First Quarter
Jun 4
Full
Jun 11
Last Quarter

Hourly Weather History & Observations

Time (CDT) Temp. Dew Point Humidity Pressure Visibility Wind Dir Wind Speed Gust Speed Precip Events Conditions
12:15 AM 59.5 °F 34.5 °F 39% 30.10 in 10.0 mi NNW 8.1 mph - N/A   Clear
12:35 AM 57.9 °F 35.1 °F 42% 30.10 in 10.0 mi NNW 6.9 mph - N/A   Clear
12:55 AM 57.7 °F 34.9 °F 42% 30.10 in 10.0 mi NNW 8.1 mph - N/A   Clear
1:15 AM 56.1 °F 35.6 °F 46% 30.11 in 10.0 mi NNW 10.4 mph - N/A   Clear
1:35 AM 55.2 °F 36.0 °F 48% 30.11 in 10.0 mi NNW 8.1 mph - N/A   Clear
1:55 AM 55.4 °F 35.2 °F 47% 30.11 in 10.0 mi NNW 8.1 mph - N/A   Clear
2:15 AM 53.1 °F 36.5 °F 53% 30.11 in 10.0 mi NNW 9.2 mph - N/A   Clear
2:35 AM 52.2 °F 36.7 °F 56% 30.11 in 10.0 mi NNW 6.9 mph - N/A   Clear
2:55 AM 52.0 °F 36.3 °F 55% 30.12 in 10.0 mi NNW 5.8 mph - N/A   Clear
3:15 AM 51.8 °F 36.1 °F 55% 30.12 in 10.0 mi NNW 5.8 mph - N/A   Clear
3:35 AM 50.7 °F 36.3 °F 58% 30.12 in 10.0 mi NNW 8.1 mph - N/A   Clear
3:55 AM 51.6 °F 35.8 °F 55% 30.13 in 10.0 mi NNW 5.8 mph - N/A   Clear
4:15 AM 50.0 °F 36.5 °F 60% 30.13 in 10.0 mi NNW 5.8 mph - N/A   Clear
4:35 AM 49.8 °F 36.1 °F 59% 30.13 in 10.0 mi NNW 3.5 mph - N/A   Clear
4:55 AM 48.2 °F 36.0 °F 63% 30.13 in 10.0 mi NNW 5.8 mph - N/A   Clear
5:15 AM 48.2 °F 36.9 °F 65% 30.14 in 10.0 mi NW 5.8 mph - N/A   Clear
5:35 AM 48.7 °F 36.3 °F 62% 30.14 in 10.0 mi NNW 4.6 mph - N/A   Clear
5:55 AM 48.2 °F 36.0 °F 63% 30.14 in 10.0 mi NNW 6.9 mph - N/A   Clear
6:15 AM 48.0 °F 36.5 °F 64% 30.15 in 10.0 mi NW 4.6 mph - N/A   Clear
6:35 AM 49.1 °F 36.5 °F 62% 30.15 in 10.0 mi NNW 4.6 mph - N/A   Clear
6:55 AM 49.1 °F 37.4 °F 64% 30.15 in 10.0 mi NNW 3.5 mph - N/A   Clear
7:15 AM 50.7 °F 37.6 °F 61% 30.16 in 10.0 mi NNW 3.5 mph - N/A   Clear
7:35 AM 52.3 °F 37.0 °F 56% 30.17 in 10.0 mi Calm Calm - N/A   Clear
7:55 AM 54.7 °F 36.9 °F 51% 30.17 in 10.0 mi Calm Calm - N/A   Clear
8:15 AM 56.8 °F 36.9 °F 47% 30.17 in 10.0 mi East 3.5 mph - N/A   Clear
8:35 AM 59.5 °F 37.2 °F 43% 30.16 in 10.0 mi ENE 6.9 mph - N/A   Clear
8:55 AM 62.4 °F 35.1 °F 36% 30.16 in 10.0 mi ENE 12.7 mph - N/A   Clear
9:15 AM 63.7 °F 35.1 °F 34% 30.16 in 10.0 mi East 11.5 mph - N/A   Clear
9:35 AM 64.8 °F 35.1 °F 33% 30.16 in 10.0 mi East 10.4 mph - N/A   Clear
9:55 AM 66.4 °F 34.3 °F 31% 30.16 in 10.0 mi East 9.2 mph - N/A   Clear
10:15 AM 66.9 °F 34.3 °F 30% 30.16 in 10.0 mi ESE 5.8 mph - N/A   Clear
10:35 AM 67.6 °F 32.5 °F 27% 30.16 in 10.0 mi East 6.9 mph - N/A   Clear
10:55 AM 68.4 °F 31.8 °F 26% 30.15 in 10.0 mi East 10.4 mph - N/A   Clear
11:15 AM 69.1 °F 31.3 °F 25% 30.15 in 10.0 mi East 8.1 mph - N/A   Clear
11:35 AM 70.5 °F 33.3 °F 25% 30.15 in 10.0 mi East 6.9 mph - N/A   Clear
11:55 AM 71.1 °F 32.5 °F 24% 30.15 in 10.0 mi ESE 8.1 mph - N/A   Clear
12:15 PM 71.4 °F 32.2 °F 24% 30.14 in 10.0 mi East 5.8 mph - N/A   Clear
12:35 PM 72.5 °F 32.0 °F 23% 30.14 in 10.0 mi SE 5.8 mph - N/A   Clear
12:55 PM 72.7 °F 30.4 °F 21% 30.13 in 10.0 mi ESE 6.9 mph - N/A   Clear
1:15 PM 73.6 °F 31.1 °F 21% 30.12 in 10.0 mi SSE 6.9 mph - N/A   Clear
1:35 PM 74.7 °F 29.5 °F 19% 30.11 in 10.0 mi ENE 4.6 mph - N/A   Clear
1:55 PM 74.7 °F 31.6 °F 21% 30.10 in 10.0 mi East 4.6 mph - N/A   Clear
2:15 PM 76.6 °F 33.3 °F 21% 30.09 in 10.0 mi SE 6.9 mph - N/A   Clear
2:35 PM 76.5 °F 32.5 °F 20% 30.08 in 10.0 mi ESE 6.9 mph - N/A   Clear
2:55 PM 77.5 °F 31.1 °F 18% 30.07 in 10.0 mi SSE 5.8 mph - N/A   Clear
3:15 PM 77.4 °F 28.9 °F 17% 30.06 in 10.0 mi SE 10.4 mph 17.3 mph N/A   Clear
3:35 PM 78.1 °F 30.6 °F 18% 30.05 in 10.0 mi SE 9.2 mph 17.3 mph N/A   Clear
3:55 PM 78.8 °F 28.0 °F 16% 30.04 in 10.0 mi ESE 12.7 mph - N/A   Clear
4:15 PM 79.0 °F 27.9 °F 15% 30.03 in 10.0 mi SE 12.7 mph 18.4 mph N/A   Clear
4:35 PM 79.0 °F 28.2 °F 16% 30.02 in 10.0 mi ESE 15.0 mph 19.6 mph N/A   Clear
5:35 PM 79.9 °F 31.6 °F 17% 30.00 in 10.0 mi SSE 11.5 mph - N/A   Clear
5:55 PM 79.9 °F 32.4 °F 18% 30.00 in 10.0 mi SE 16.1 mph - N/A   Clear
6:35 PM 79.0 °F 31.1 °F 17% 29.99 in 10.0 mi ESE 13.8 mph - N/A   Clear
6:55 PM 78.4 °F 31.6 °F 18% 29.98 in 10.0 mi SE 12.7 mph - N/A   Clear
7:15 PM 77.5 °F 33.6 °F 20% 29.97 in 10.0 mi ESE 12.7 mph - N/A   Clear
7:35 PM 76.8 °F 35.4 °F 22% 29.97 in 10.0 mi ESE 12.7 mph - N/A   Clear
7:55 PM 75.6 °F 34.2 °F 22% 29.97 in 10.0 mi SE 11.5 mph - N/A   Clear
8:15 PM 73.9 °F 34.7 °F 24% 29.97 in 10.0 mi SE 10.4 mph - N/A   Clear
8:35 PM 72.5 °F 34.0 °F 24% 29.97 in 10.0 mi SE 10.4 mph - N/A   Clear
8:55 PM 69.4 °F 34.3 °F 27% 29.97 in 10.0 mi SE 9.2 mph - N/A   Clear
9:15 PM 68.0 °F 34.3 °F 29% 29.98 in 10.0 mi SSE 8.1 mph - N/A   Clear
9:35 PM 66.7 °F 35.1 °F 31% 29.99 in 10.0 mi SSE 8.1 mph - N/A   Clear
9:55 PM 63.5 °F 36.1 °F 36% 29.99 in 10.0 mi SSE 5.8 mph - N/A   Clear
10:15 PM 62.8 °F 36.1 °F 37% 29.99 in 10.0 mi SE 5.8 mph - N/A   Clear
10:35 PM 61.7 °F 39.0 °F 43% 29.99 in 10.0 mi SE 8.1 mph - N/A   Clear
10:55 PM 60.6 °F 37.6 °F 42% 29.99 in 10.0 mi SE 5.8 mph - N/A   Clear
11:15 PM 60.8 °F 37.4 °F 42% 29.98 in 10.0 mi SSE 10.4 mph - N/A   Clear
11:35 PM 61.0 °F 37.4 °F 42% 29.98 in 10.0 mi SE 10.4 mph - N/A   Clear
11:55 PM 61.7 °F 37.4 °F 41% 29.97 in 10.0 mi SE 10.4 mph - N/A   Clear